{"data":{"norad_id":61704,"intl_designator":"2024-195T","name":"STARLINK-32387","alt_names":[],"object_type":"PAYLOAD","status":"ACTIVE","operator":null,"country":"US","launch_date":"2024-10-30","launch_site_code":"AFWTR","launch_vehicle":null,"mission":null,"orbit_class":"UNKNOWN","rcs_meters":null,"size_class":null,"mass_kg":null,"dimensions":null,"purposes":["comms"],"wikipedia_slug":null,"has_3d_model":false,"image_url":null,"decayed_at":null,"tle_current":{"epoch":"2026-09-21T15:48:49.931136Z","epoch_age_seconds":88440,"freshness":"FRESH","line1":"1 61704U 24195T   26264.65891124 -.00000353  00000+0  68259-6 0  9992","line2":"2 61704  53.1624 320.2525 0001325  89.5050 270.6104 15.34396521107252","mean_motion":15.34396521,"eccentricity":0.0001325,"inclination_deg":53.1624,"raan_deg":320.2525,"arg_perigee_deg":89.505,"mean_anomaly_deg":270.6104,"bstar":6.8259e-7,"rev_number":10725,"period_min":93.847970866196,"perigee_km":461.80716784589,"apogee_km":463.61999324973,"semimajor_km":6840.8505805478,"source":"CELESTRAK","updated_at":"2026-09-22T09:00:49.409087Z"}}}